This is the latest recevied weather packets stored in our database for station/object EA1FBN. If no packets are shown the sender has not sent any weather packets the latest 10 day(s).
| Time | Temp. | Humidity | Pressure | Rain* | Wind** | Luminosity | Snow |
|---|---|---|---|---|---|---|---|
| 1788094739 | 25.56° C | 45% | 1017.3 hPa | 0 mm | - | - | - |
| 1788094439 | 25.56° C | 49% | 1017.3 hPa | 0 mm | - | - | - |
| 1788094139 | 25° C | 48% | 1017.3 hPa | 0 mm | - | - | - |
| 1788093839 | 25° C | 51% | 1017.3 hPa | 0 mm | - | - | - |
| 1788093539 | 25° C | 51% | 1017.4 hPa | 0 mm | - | - | - |
| 1788093239 | 25° C | 50% | 1017.3 hPa | 0 mm | - | - | - |
| 1788092939 | 25° C | 52% | 1017.4 hPa | 0 mm | - | - | - |
| 1788092639 | 25° C | 50% | 1017.4 hPa | 0 mm | - | - | - |
| 1788092339 | 25° C | 52% | 1017.4 hPa | 0 mm | - | - | - |
| 1788092039 | 25° C | 53% | 1017.5 hPa | 0 mm | - | - | - |
| 1788091739 | 24.44° C | 54% | 1017.5 hPa | 0 mm | - | - | - |
| 1788091440 | 24.44° C | 53% | 1017.6 hPa | 0 mm | - | - | - |
| 1788091140 | 23.89° C | 55% | 1017.6 hPa | 0 mm | - | - | - |
| 1788090840 | 23.89° C | 57% | 1017.6 hPa | 0 mm | - | - | - |
| 1788090540 | 23.89° C | 58% | 1017.8 hPa | 0.25 mm | - | - | - |
| 1788090239 | 23.89° C | 57% | 1017.8 hPa | 0.25 mm | - | - | - |
| 1788089939 | 23.89° C | 59% | 1017.7 hPa | 0.25 mm | - | - | - |
| 1788089639 | 23.33° C | 60% | 1017.8 hPa | 0.25 mm | - | - | - |
| 1788089340 | 22.78° C | 61% | 1017.8 hPa | 0.51 mm | - | - | - |
| 1788089040 | 23.33° C | 60% | 1017.8 hPa | 0.51 mm | - | - | - |
| 1788088740 | 22.78° C | 62% | 1017.8 hPa | 0.51 mm | - | - | - |
| 1788088440 | 23.33° C | 60% | 1017.9 hPa | 0.51 mm | - | - | - |
| 1788088140 | 23.33° C | 60% | 1017.9 hPa | 0.51 mm | - | - | - |
| 1788087840 | 23.33° C | 59% | 1018 hPa | 0.51 mm | - | - | - |
| 1788087540 | 22.78° C | 60% | 1018 hPa | 0.51 mm | - | - | - |
* Rain latest hour (hover to see other rain measurements)
** Current wind speed in m/s (hover to see current wind gust speed)